#timestamp,LO_Frequency,Hit 
1505991615.9,286046994.0,N
1505991635.7,286046995.0,N
1505991655.6,286046994.6,N
1505991675.4,286046994.0,N
1505991695.2,286046993.8,N
1505991715.1,286046990.1,N
1505991716.0,286046990.1,P
1505991735.8,286046996.3,N
1505991755.6,286046994.8,N
1505991775.5,286046991.7,P
1505991795.3,286047000.6,N
1505991815.1,286047005.4,N
1505991835.9,286047003.5,N
1505991855.7,286047004.2,N
1505991875.5,286047004.4,N
1505991895.4,286047004.4,N
1505991915.2,286047003.2,N
1505991935.0,286047002.1,N
1505991935.9,286047002.1,N
1505991955.8,286047003.7,N
1505991975.6,286047003.9,N
1505991995.4,286047002.7,N
1505992015.2,286047004.3,N
1505992035.1,286047003.3,N
1505992036.0,286047003.3,N
1505992055.8,286047008.4,N
1505992075.6,286047005.2,N
1505992095.5,286047004.9,N
1505992115.3,286047006.5,N
1505992135.1,286047005.1,N
1505992155.9,286047009.9,N
1505992175.7,286047011.5,P
1505992195.5,286047010.4,N
1505992215.4,286047003.0,N
1505992235.2,286047003.8,N
1505992255.0,286046999.1,N
1505992255.9,286046999.1,N
1505992275.8,286046999.4,N
1505992295.6,286046999.3,N
1505992315.4,286046993.3,N
1505992335.3,286046996.3,N
1505992355.1,286046997.8,N
1505992356.0,286046997.8,N
1505992375.8,286046996.6,N
1505992395.7,286046998.4,N
1505992415.5,286046996.6,N
1505992435.3,286046995.8,N
1505992455.1,286046996.5,N
1505992475.9,286046998.0,N
1505992495.7,286046997.8,N
1505992515.5,286046996.7,N
1505992535.4,286046999.3,N
1505992555.2,286047001.0,N
1505992575.0,286046997.6,N
1505992575.9,286046997.6,N
1505992595.8,286046997.6,N
1505992615.6,286046994.0,N
1505992635.4,286046997.6,N
1505992655.3,286046995.2,N
1505992675.1,286046999.6,N
1505992676.0,286046999.6,N
1505992695.8,286046994.6,N
1505992715.7,286046992.3,N
1505992735.5,286046999.0,N
1505992755.3,286047002.8,N
1505992775.1,286046998.1,N
1505992795.9,286046997.0,N
1505992815.7,286046997.4,N
1505992835.5,286046997.1,N
1505992855.4,286047000.7,N
1505992875.2,286046997.3,N
1505992895.0,286047001.2,N
1505992895.9,286047001.2,N
1505992915.8,286047000.5,N
1505992935.6,286047000.0,N
1505992955.4,286046999.2,N
1505992975.3,286046993.6,N
1505992995.1,286046994.6,N
1505992996.0,286046994.6,N
1505993015.8,286046996.9,N
1505993035.7,286046993.9,N
1505993055.5,286046997.6,N
1505993075.3,286046998.0,N
1505993095.1,286046996.9,N
1505993115.9,286046997.6,N
1505993135.7,286046995.3,N
1505993155.5,286046993.8,N
1505993175.4,286046996.9,N
1505993195.2,286046997.7,N
1505993215.0,286046994.2,N
1505993215.9,286046994.2,N
1505993235.8,286046991.9,P
1505993255.6,286046993.3,N
1505993275.4,286046992.1,P
1505993295.3,286046993.7,P
1505993315.1,286047003.8,P
1505993335.9,286047005.3,N
1505993355.7,286047005.1,N
1505993375.5,286047004.8,N
1505993395.3,286047000.4,N
1505993415.2,286047001.6,N
1505993435.0,286047005.6,N
1505993435.9,286047005.6,N
1505993455.7,286047006.5,N
1505993475.6,286046999.9,N
1505993495.4,286046996.6,N
1505993515.2,286047005.8,N
1505993535.1,286047003.9,N
1505993536.0,286047003.9,N
1505993555.8,286047003.8,N
1505993575.6,286047000.1,N
1505993595.5,286046998.3,N
1505993615.3,286046998.8,N
1505993635.1,286046999.9,N
1505993655.8,286047000.0,N
1505993675.7,286047000.4,N
1505993695.5,286046998.7,N
1505993715.3,286046998.9,N
1505993735.2,286047001.6,N
1505993755.9,286047004.1,N
1505993775.7,286047006.0,N
1505993795.6,286047000.2,N
1505993815.4,286047001.5,N
1505993835.2,286047004.1,N
1505993855.1,286046998.9,N
1505993856.0,286046998.9,N
1505993875.8,286047003.7,N
1505993895.6,286047004.2,N
1505993915.5,286047005.6,N
1505993935.3,286047004.6,N
1505993955.1,286046998.2,N
1505993975.9,286046999.0,N
1505993995.7,286047003.9,N
1505994015.5,286047003.8,N
1505994035.3,286047003.0,N
1505994055.2,286047005.1,N
1505994075.0,286047006.3,N
1505994075.9,286047006.3,N
1505994095.7,286047003.2,N
1505994115.6,286047000.7,N
1505994135.4,286047003.6,N
1505994155.2,286047004.5,N
1505994175.1,286047005.0,N
1505994176.0,286047005.0,N
1505994195.8,286047005.3,N
1505994215.6,286047004.1,N
1505994235.5,286047001.5,N
1505994255.3,286047002.1,N
1505994275.1,286047002.2,N
1505994295.9,286047003.9,N
1505994315.7,286047000.6,N
1505994335.5,286046996.4,N
1505994355.4,286046996.5,N
1505994375.2,286047000.1,N
1505994395.0,286047002.8,N
1505994395.9,286047002.8,N
1505994415.8,286047002.5,N
1505994435.6,286046999.7,N
1505994455.4,286047002.7,N
1505994475.2,286046998.9,N
1505994495.1,286047002.0,N
1505994496.0,286047002.0,N
1505994515.8,286046999.5,N
1505994535.6,286046996.4,N
1505994555.5,286046995.0,N
1505994575.3,286046994.1,N
1505994595.1,286046990.1,P
1505994615.9,286046991.9,N
1505994635.7,286046994.1,N
1505994655.5,286046994.0,N
1505994675.4,286046990.5,N
1505994695.2,286046998.0,N
1505994715.0,286046998.4,N
1505994715.9,286046998.4,N
1505994735.8,286046997.1,N
1505994755.6,286046991.7,N
1505994775.4,286046995.4,N
1505994795.3,286046995.9,N
1505994815.1,286046999.2,N
1505994816.0,286046999.2,N
1505994835.8,286046996.9,N
1505994855.7,286046994.4,N
1505994875.5,286046996.8,N
1505994895.3,286046994.3,N
1505994915.1,286046992.6,N
1505994935.9,286046998.0,N
1505994955.7,286046999.2,N
1505994975.5,286046997.0,N
1505994995.4,286046999.6,N
1505995015.2,286046996.6,N
1505995035.0,286046991.9,N
1505995035.9,286046991.9,N
1505995055.8,286046995.7,N
1505995075.6,286046997.5,N
1505995095.4,286046999.2,N
1505995115.3,286046999.5,N
1505995135.1,286046994.2,N
1505995136.0,286046994.2,N
1505995155.8,286046990.2,P
1505995175.7,286046994.0,N
1505995195.5,286046993.1,N
